Location: ?ejeti?ky
(50.4060°N, 14.9016°E)
Time: 22:28:19
(UTC+00:00)

STARLINK-1364 - Pass Details

Date: 01 October 2020
Orbit: 548 x 551 km, 53.0° (Epoch: 23 October)

Event Time Altitude Azimuth Distance (km) Brightness Sun altitude
Exits shadow 01:48:24 29° 73° (ENE) 1,031 5.5 -29.8°
Drops below altitude 10° 01:50:30 10° 70° (ENE) 1,830 7.1 -29.6°
Sets 01:52:44 0° 70° (ENE) 2,726 8.3 -29.3°
